This is the latest recevied weather packets stored in our database for station/object KJ4AJP. If no packets are shown the sender has not sent any weather packets the latest 10 day(s).
| Time | Temp. | Humidity | Pressure | Rain* | Wind** | Luminosity | Snow |
|---|---|---|---|---|---|---|---|
| 1778016971 | 17.22° C | 97% | 1007.5 hPa | 0 mm | - | 25 W/m² | - |
| 1778016668 | 17.22° C | 97% | 1007.7 hPa | 1.27 mm | - | 24 W/m² | - |
| 1778016364 | 17.22° C | 97% | 1007.6 hPa | 1.27 mm | - | 42 W/m² | - |
| 1778016062 | 17.22° C | 97% | 1007.5 hPa | 1.78 mm | - | 39 W/m² | - |
| 1778015758 | 17.22° C | 96% | 1007.6 hPa | 1.78 mm | - | 34 W/m² | - |
| 1778015456 | 17.22° C | 96% | 1007.6 hPa | 1.78 mm | - | 34 W/m² | - |
| 1778015152 | 17.22° C | 96% | 1008 hPa | 1.78 mm | - | 30 W/m² | - |
| 1778014849 | 17.22° C | 96% | 1007.7 hPa | 1.27 mm | - | 44 W/m² | - |
| 1778014547 | 17.22° C | 95% | 1007.8 hPa | 1.27 mm | - | 35 W/m² | - |
| 1778014244 | 17.78° C | 95% | 1007.8 hPa | 0 mm | - | 30 W/m² | - |
| 1778013942 | 17.78° C | 95% | 1007.6 hPa | 0 mm | - | 33 W/m² | - |
| 1778013639 | 17.78° C | 94% | 1007.7 hPa | 0 mm | - | 29 W/m² | - |
| 1778013335 | 17.78° C | 94% | 1007.6 hPa | 0 mm | - | 23 W/m² | - |
| 1778013032 | 17.78° C | 94% | 1007.6 hPa | 0 mm | - | 26 W/m² | - |
| 1778012728 | 17.78° C | 94% | 1007.7 hPa | 0 mm | - | 59 W/m² | - |
| 1778012424 | 17.78° C | 94% | 1007.9 hPa | 0 mm | - | 55 W/m² | - |
| 1778012122 | 17.78° C | 94% | 1007.8 hPa | 0 mm | - | 35 W/m² | - |
| 1778011819 | 17.78° C | 95% | 1007.5 hPa | 0 mm | - | 30 W/m² | - |
| 1778011517 | 17.78° C | 95% | 1007.8 hPa | 0 mm | - | 47 W/m² | - |
| 1778011214 | 17.78° C | 94% | 1007.7 hPa | 0 mm | - | 44 W/m² | - |
| 1778010910 | 18.33° C | 94% | 1007.6 hPa | 1.78 mm | - | 34 W/m² | - |
| 1778010607 | 18.33° C | 93% | 1007.7 hPa | 3.05 mm | - | 59 W/m² | - |
| 1778010304 | 18.33° C | 93% | 1007.7 hPa | 3.05 mm | - | 68 W/m² | - |
| 1778010004 | 18.89° C | 93% | 1007.6 hPa | 1.78 mm | - | 89 W/m² | - |
| 1778009702 | 18.89° C | 92% | 1007.6 hPa | 0 mm | - | 139 W/m² | - |
* Rain latest hour (hover to see other rain measurements)
** Current wind speed in m/s (hover to see current wind gust speed)